星链-4325 (STARLINK-4325 )

导读

STARLINK-4325是美国星链项目中的一颗卫星,于2022年7月11日发射升空,归属SpaceX公司的Starlink星座网络。该卫星属于星链卫星发射批次中的一员,主要服务于全球卫星互联网接入项目,通过近地轨道卫星组网,为全球不同地区用户提供高速低延迟的宽带互联网服务。

基本信息
目录编号:
53068
目录名称:
STARLINK-4325
国际标识:
2022-077AB
轨道中心:
EARTH
卫星名称:
星链-4325
卫星全名:
星链-4325 (STARLINK-4325 )
卫星状态:
在轨 (已飞行1523 天)
发射日期:
2022-07-11 UTC
国别 :
美国 (US)
星等 :
--
该卫星已列入 空间交会检测服务 Space Conjunction Data Service (SCDS) ,当前飞行风险评估等级: 无高风险
轨道信息
数据来源 国际轨道数据
星历时间: 2026-09-11T08:00:04+0800
11小时前
查看轨道信息
半长轴: 6849.403km
偏心率: 0.000198
轨道倾角: 97.284°
近地点辐角 99.480°
升交点赤经 69.799°
平近点角 218.719°
近地点: 469.909km
远地点: 472.623km
周期: 94.024分钟
每日圈数: 15.315237
详细信息
固有亮度:
5
最大亮度:
2.5
卫星平台:
Starlink v1.5
覆盖范围:
全球
运营商:
太空探索技术公司
运营商所在国:
美国
制造商(研发单位):
太空探索技术公司
制造商所在国:
美国
使用方式:
暂无
卫星简介
星链(Starlink)计划是由太空探索技术公司(SpaceX)提出的一个巨型低轨卫星互联网星座项目,计划在2019年至2024年间在太空搭建由约1.2万颗卫星组成的“星链”网络,其中1584颗将部署在地球上空550千米处的近地轨道,并从2020年开始工作。该卫星仍在工作。
2D轨道图
3D轨道图
轨道高度分析图
轨道倾角分析图
轨道综合分析图
查看轨道综合分析图
交会数据列表
事件ID 空间交会对象 最接近时刻(TCA) 交会距离 交会风险概率(CRP) 交会风险指数(CRI) 操作
CDM_260908-233105-306806-745821
2026-09-08T
23:31:24+0000
0.717 km
远距离
7.819299E-5 中风险 0.73
CDM_260911-135905-306806-392621
2026-09-11T
13:59:18+0000
1.533 km
极远距离
5.22249E-6 低风险 0.49
CDM_260912-040605-306806-469621
2026-09-12T
04:06:17+0000
1.790 km
极远距离
3.721524E-6 低风险 0.46
CDM_260911-160305-306806-033222
2026-09-11T
16:03:34+0000
2.293 km
极远距离
2.010231E-6 低风险 0.41
CDM_260912-135405-284305-306821
2026-09-12T
13:54:39+0000
2.370 km
极远距离
1.931373E-6 低风险 0.41
CDM_260913-175704-739905-306821
2026-09-13T
17:57:44+0000
2.380 km
极远距离
1.917485E-6 低风险 0.41
CDM_260912-001505-173605-306821
2026-09-12T
00:15:39+0000
2.340 km
极远距离
1.848933E-6 低风险 0.4
CDM_260905-020205-185405-306821
2026-09-05T
02:02:50+0000
2.415 km
极远距离
1.817551E-6 低风险 0.4
CDM_260911-064703-560205-306821
2026-09-11T
06:47:06+0000
2.683 km
极远距离
1.46085E-6 低风险 0.38
CDM_260911-090005-306806-033221
2026-09-11T
09:00:22+0000
2.931 km
极远距离
1.330535E-6 低风险 0.37
与全量物体交会距离演化趋势
与全量物体交会风险概率演化趋势